Regional Weather Roundup
Issued by NWS Goodland, KS

Home | Current Version | Previous Version | Graphics & Text | Print | Product List | Glossary On
Versions: 1 2 3 4 5 6 7 8 9 10 11 12 13 14 15 16 17 18 19 20 21 22 23 24 25 26 27 28 29 30 31 32 33 34 35 36 37 38 39 40 41 42 43 44 45 46 47 48 49 50
000
ASUS43 KGLD 012108
RWRGLD

GOODLAND FORECAST AREA HOURLY WEATHER ROUNDUP
NATIONAL WEATHER SERVICE GOODLAND KS
300 PM MDT WED JUL 01 2015

...OFFICIAL OBSERVATIONS...

CITY           SKY/WX    TMP DP  RH WIND       PRES   REMARKS
GOODLAND KS    SUNNY     95  48  20 N12       29.99S
HILL CITY KS   SUNNY    100  57  23 NE14G20   29.88F
IMPERIAL NEB   MOSUNNY   91  58  32 N7        29.96F
MCCOOK NEB     MOSUNNY   96  61  31 NE12G18   29.91S
AKRON CO       SUNNY     91  51  25 N8        30.07F
BURLINGTON CO  MOSUNNY   93  48  21 E7        30.03F
LIMON CO       MOSUNNY   86  52  30 E6        30.12F
$$

...UNOFFICIAL OBSERVATIONS...

CITY           SKY/WX    TMP DP  RH WIND       PRES   REMARKS
COLBY KS       SUNNY     99  52  20 N14G23    29.96S
GOVE KS          N/A     98  32  10 MISG        N/A
NORTON KS      SUNNY     93  57  29 NE10      29.90
SHARON SPRINGS   N/A     96  53  23 N10G21      N/A
KIT CARSON CO    N/A     93  55  27 MISG        N/A
YUMA CO          N/A     93  50  22 CALM        N/A
$$



USA.gov is the U.S. government's official web portal to all federal, state and local government web resources and services.